KLM555 EDDE-EDDP

Flight info

Callsign KLM555
Flight time 0h 26m
Altitude 15000
Route LASTO1C LASTO DCT GOT GOT1W
Aircraft B738/M-SDE2E3FGHIRWXY/LB1

Departure

Time 2026-04-26 17:42
Airport Erfurt-Weimar Airport (EDDE)

Arrival

Time 2026-04-26 18:09
Airport Leipzig/Halle Airport (EDDP)
Time Latitude Longitude Altitude Speed Heading
2026-04-26 17:27 50.97664 10.96331 1076 ft 0 kts 277°
2026-04-26 17:36 50.97664 10.96329 1076 ft 2 kts 277°
2026-04-26 17:36 50.97672 10.96276 1076 ft 7 kts 312°
2026-04-26 17:36 50.97723 10.96230 1076 ft 11 kts 299°
2026-04-26 17:36 50.97737 10.96088 1076 ft 15 kts 278°
2026-04-26 17:37 50.97757 10.95898 1076 ft 19 kts 279°
2026-04-26 17:37 50.97771 10.95700 1076 ft 18 kts 277°
2026-04-26 17:37 50.97784 10.95512 1076 ft 17 kts 274°
2026-04-26 17:38 50.97809 10.95204 1076 ft 13 kts 274°
2026-04-26 17:38 50.97817 10.95068 1077 ft 12 kts 277°
2026-04-26 17:38 50.97839 10.94947 1077 ft 11 kts 295°
2026-04-26 17:38 50.97874 10.94844 1077 ft 10 kts 297°
2026-04-26 17:39 50.97895 10.94743 1078 ft 10 kts 278°
2026-04-26 17:39 50.97906 10.94612 1078 ft 14 kts 277°
2026-04-26 17:39 50.97916 10.94466 1078 ft 13 kts 278°
2026-04-26 17:39 50.97929 10.94327 1078 ft 12 kts 278°
2026-04-26 17:40 50.97944 10.94195 1078 ft 12 kts 295°
2026-04-26 17:40 50.97976 10.94134 1078 ft 6 kts 322°
2026-04-26 17:40 50.97977 10.94133 1078 ft 0 kts 322°
2026-04-26 17:41 50.98020 10.94080 1078 ft 16 kts 324°
2026-04-26 17:41 50.98122 10.94077 1077 ft 16 kts 67°
2026-04-26 17:41 50.98109 10.94247 1077 ft 16 kts 97°
2026-04-26 17:41 50.98078 10.94625 1076 ft 71 kts 96°
2026-04-26 17:42 50.97982 10.95814 1076 ft 145 kts 97°
2026-04-26 17:42 50.97796 10.97604 1485 ft 174 kts 101°
2026-04-26 17:42 50.97553 10.99374 2563 ft 165 kts 99°
2026-04-26 17:42 50.97338 11.01201 3119 ft 180 kts 98°
2026-04-26 17:43 50.97124 11.03189 3758 ft 188 kts 97°
2026-04-26 17:43 50.96917 11.05297 4258 ft 206 kts 97°
2026-04-26 17:43 50.96676 11.07618 4779 ft 224 kts 97°
2026-04-26 17:43 50.96416 11.10050 5585 ft 228 kts 99°
2026-04-26 17:44 50.96083 11.12491 6347 ft 234 kts 100°
2026-04-26 17:44 50.95798 11.15137 6820 ft 254 kts 90°
2026-04-26 17:44 50.96147 11.17845 7521 ft 258 kts 59°
2026-04-26 17:44 50.97242 11.20046 8340 ft 257 kts 36°
2026-04-26 17:45 50.98740 11.21487 9185 ft 256 kts 20°
2026-04-26 17:45 51.00416 11.22169 9980 ft 254 kts 358°
2026-04-26 17:45 51.02123 11.21584 10702 ft 256 kts 332°
2026-04-26 17:45 51.03557 11.19831 11196 ft 270 kts 313°
2026-04-26 17:46 51.04797 11.17541 11662 ft 285 kts 312°
2026-04-26 17:46 51.06332 11.15467 12111 ft 301 kts 328°
2026-04-26 17:46 51.08306 11.14171 12548 ft 318 kts 347°
2026-04-26 17:46 51.10550 11.14082 13033 ft 335 kts
2026-04-26 17:47 51.12813 11.15096 13725 ft 346 kts 20°
2026-04-26 17:47 51.14254 11.16270 14191 ft 352 kts 28°
2026-04-26 17:47 51.16826 11.19482 15077 ft 365 kts 44°
2026-04-26 17:47 51.18445 11.22639 15287 ft 372 kts 51°
2026-04-26 17:48 51.19905 11.26004 15289 ft 370 kts 53°
2026-04-26 17:48 51.21307 11.29427 15291 ft 369 kts 54°
2026-04-26 17:48 51.22709 11.32835 15292 ft 369 kts 53°
2026-04-26 17:48 51.24133 11.36234 15292 ft 369 kts 53°
2026-04-26 17:49 51.25580 11.39624 15295 ft 369 kts 52°
2026-04-26 17:49 51.27026 11.42965 15296 ft 368 kts 52°
2026-04-26 17:49 51.28480 11.46299 15295 ft 368 kts 52°
2026-04-26 17:49 51.29945 11.49648 15297 ft 367 kts 51°
2026-04-26 17:50 51.31396 11.52963 15295 ft 367 kts 51°
2026-04-26 17:50 51.32816 11.56326 15296 ft 368 kts 55°
2026-04-26 17:50 51.34005 11.59951 15294 ft 371 kts 64°
2026-04-26 17:50 51.34816 11.63884 15296 ft 374 kts 72°
2026-04-26 17:51 51.35372 11.67925 15295 ft 375 kts 77°
2026-04-26 17:51 51.35823 11.72027 15296 ft 376 kts 78°
2026-04-26 17:51 51.36238 11.76144 15300 ft 376 kts 79°
2026-04-26 17:51 51.36647 11.80260 15306 ft 376 kts 79°
2026-04-26 17:52 51.37065 11.84402 15307 ft 377 kts 78°
2026-04-26 17:52 51.37487 11.88502 15307 ft 376 kts 78°
2026-04-26 17:52 51.37921 11.92651 15310 ft 376 kts 78°
2026-04-26 17:52 51.38349 11.96704 15304 ft 371 kts 78°
2026-04-26 17:53 51.38764 12.00650 15309 ft 353 kts 78°
2026-04-26 17:53 51.39163 12.04447 15299 ft 335 kts 77°
2026-04-26 17:53 51.39537 12.08002 15292 ft 321 kts 77°
2026-04-26 17:54 51.40288 12.15074 15312 ft 325 kts 77°
2026-04-26 17:54 51.40657 12.18573 15182 ft 320 kts 77°
2026-04-26 17:54 51.41022 12.22065 14852 ft 317 kts 77°
2026-04-26 17:54 51.41380 12.25511 14471 ft 315 kts 77°
2026-04-26 17:55 51.41739 12.28974 14086 ft 313 kts 77°
2026-04-26 17:55 51.42088 12.32368 13703 ft 312 kts 77°
2026-04-26 17:55 51.42440 12.35786 13321 ft 310 kts 77°
2026-04-26 17:55 51.42785 12.39143 12951 ft 309 kts 77°
2026-04-26 17:56 51.43134 12.42534 12578 ft 308 kts 77°
2026-04-26 17:56 51.43986 12.49131 11994 ft 300 kts 68°
2026-04-26 17:57 51.45497 12.55203 11508 ft 288 kts 62°
2026-04-26 17:57 51.46287 12.58123 11180 ft 286 kts 63°
2026-04-26 17:57 51.47061 12.61059 10766 ft 287 kts 63°
2026-04-26 17:57 51.47814 12.64014 10339 ft 289 kts 64°
2026-04-26 17:58 51.49983 12.72700 9280 ft 273 kts 65°
2026-04-26 17:59 51.51357 12.78203 8477 ft 262 kts 65°
2026-04-26 17:59 51.52031 12.80908 7859 ft 264 kts 65°
2026-04-26 17:59 51.52665 12.83636 7378 ft 262 kts 74°
2026-04-26 17:59 51.52653 12.86524 7103 ft 259 kts 106°
2026-04-26 18:00 51.51764 12.88960 6803 ft 255 kts 134°
2026-04-26 18:00 51.50345 12.90637 6509 ft 252 kts 153°
2026-04-26 18:00 51.48736 12.91576 6188 ft 248 kts 172°
2026-04-26 18:00 51.47079 12.91247 5893 ft 241 kts 208°
2026-04-26 18:01 51.45922 12.89441 5610 ft 235 kts 246°
2026-04-26 18:01 51.45638 12.86939 5304 ft 229 kts 274°
2026-04-26 18:01 51.45722 12.84419 5111 ft 222 kts 273°
2026-04-26 18:01 51.45717 12.82007 4977 ft 214 kts 270°
2026-04-26 18:02 51.45644 12.79677 4791 ft 209 kts 268°
2026-04-26 18:02 51.45584 12.78147 4651 ft 206 kts 268°
2026-04-26 18:02 51.45491 12.75094 4305 ft 205 kts 268°
2026-04-26 18:02 51.45385 12.72841 4079 ft 202 kts 267°
2026-04-26 18:03 51.45279 12.70627 4034 ft 198 kts 267°
2026-04-26 18:03 51.45185 12.68428 4043 ft 199 kts 268°
2026-04-26 18:03 51.45094 12.66237 4035 ft 199 kts 268°
2026-04-26 18:03 51.45000 12.64008 4037 ft 200 kts 268°
2026-04-26 18:04 51.44907 12.61806 4038 ft 200 kts 268°
2026-04-26 18:04 51.44812 12.59589 4037 ft 200 kts 267°
2026-04-26 18:04 51.44719 12.57427 4032 ft 187 kts 268°
2026-04-26 18:05 51.44549 12.53425 3917 ft 182 kts 268°
2026-04-26 18:05 51.44467 12.51376 3605 ft 185 kts 267°
2026-04-26 18:05 51.44371 12.49357 3346 ft 184 kts 267°
2026-04-26 18:05 51.44281 12.47327 3086 ft 182 kts 268°
2026-04-26 18:06 51.44195 12.45335 2857 ft 175 kts 267°
2026-04-26 18:06 51.44111 12.43430 2562 ft 169 kts 267°
2026-04-26 18:06 51.44029 12.41588 2408 ft 162 kts 268°
2026-04-26 18:06 51.43951 12.39815 2145 ft 161 kts 268°
2026-04-26 18:07 51.43874 12.38068 1886 ft 157 kts 268°
2026-04-26 18:07 51.43800 12.36325 1687 ft 156 kts 269°
2026-04-26 18:07 51.43735 12.34613 1470 ft 155 kts 266°
2026-04-26 18:07 51.43673 12.33480 1373 ft 153 kts 265°
2026-04-26 18:08 51.43547 12.31218 1133 ft 154 kts 266°
2026-04-26 18:08 51.43476 12.29484 905 ft 157 kts 267°
2026-04-26 18:08 51.43407 12.27735 683 ft 158 kts 266°
2026-04-26 18:08 51.43329 12.26018 487 ft 153 kts 266°
2026-04-26 18:09 51.43260 12.24582 463 ft 94 kts 267°
2026-04-26 18:09 51.43224 12.23936 455 ft 34 kts 249°
2026-04-26 18:09 51.43124 12.23640 451 ft 16 kts 236°
2026-04-26 18:09 51.43099 12.23579 451 ft 0 kts 236°
2026-04-26 18:10 51.43095 12.23570 451 ft 5 kts 235°
2026-04-26 18:10 51.43063 12.23500 451 ft 8 kts 233°
2026-04-26 18:10 51.43020 12.23447 451 ft 8 kts 197°
2026-04-26 18:11 51.42966 12.23445 451 ft 9 kts 175°
2026-04-26 18:11 51.42904 12.23399 453 ft 12 kts 242°
2026-04-26 18:11 51.42882 12.23239 452 ft 18 kts 264°
2026-04-26 18:11 51.42875 12.23008 451 ft 23 kts 266°
2026-04-26 18:12 51.42864 12.22753 450 ft 23 kts 265°
2026-04-26 18:12 51.42854 12.22497 450 ft 23 kts 264°
2026-04-26 18:12 51.42841 12.22241 450 ft 23 kts 266°
2026-04-26 18:12 51.42826 12.21979 447 ft 25 kts 266°
2026-04-26 18:13 51.42813 12.21704 444 ft 26 kts 266°
2026-04-26 18:13 51.42805 12.21445 443 ft 20 kts 267°
2026-04-26 18:13 51.42765 12.21242 442 ft 20 kts 209°
2026-04-26 18:13 51.42674 12.21194 441 ft 21 kts 195°
2026-04-26 18:14 51.42487 12.21116 442 ft 20 kts 195°
2026-04-26 18:14 51.42351 12.21051 443 ft 20 kts 197°
2026-04-26 18:14 51.42219 12.20992 443 ft 20 kts 195°
2026-04-26 18:14 51.42085 12.20935 445 ft 17 kts 195°
2026-04-26 18:15 51.41993 12.20967 446 ft 9 kts 118°
2026-04-26 18:15 51.41971 12.21067 447 ft 12 kts 105°
2026-04-26 18:15 51.41947 12.21202 448 ft 12 kts 105°
2026-04-26 18:15 51.41926 12.21330 448 ft 11 kts 105°
2026-04-26 18:16 51.41945 12.21390 449 ft 7 kts 19°
2026-04-26 18:16 51.42037 12.21439 449 ft 6 kts 16°
2026-04-26 18:16 51.42043 12.21442 449 ft 0 kts 16°